Christchurch, New Zealand

1:23 AM NZDT on December 16, 2017 (GMT +1300)
Christchurch

Weather History for 93780 - April, 2014

Change the Weather History Date:

Saturday, April 5, 2014

  Actual Average Record
Temperature  
Mean Temperature 57 °F -  
Max Temperature 59 °F 59 °F - ()
Min Temperature 55 °F 41 °F - ()
Degree Days  
Heating Degree Days 8    
Growing Degree Days 7 (Base 50)    
Moisture  
Dew Point 56 °F    
Average Humidity 96    
Maximum Humidity 100    
Minimum Humidity 88    
Precipitation  
Precipitation 0.00 in - - ()
Sea Level Pressure  
Sea Level Pressure 30.14 in    
Wind  
Wind Speed 5 mph ()    
Max Wind Speed 10 mph    
Max Gust Speed -    
Visibility 5.8 miles    
Events Rain    
T = Trace of Precipitation, MM = Missing Value Source: Averaged Metar Reports

Daily Weather History Graph

Daily Weather History Graph

Search for Another Location

Airport or City:

Trip Planner

Search our weather history database for the weather conditions in past years. The results will help you decide how hot, cold, wet, or windy it might be!

Date:

Astronomy

Apr. 05, 2014 Rise Set
Actual Time 7:50 AM NZDT 7:14 PM NZDT
Civil Twilight 7:21 AM NZDT 7:42 PM NZDT
Nautical Twilight 6:48 AM NZDT 8:15 PM NZDT
Astronomical Twilight 6:15 AM NZDT 8:48 PM NZDT
Moon 1:07 PM NZDT (4/5) 10:53 PM NZDT (4/5)
Length of Visible Light 12h 20m
Length of Day
11h 23m
Waxing Crescent, 28% of the Moon is Illuminated
Apr 5
Waxing Crescent
Apr 7
First Quarter
Apr 15
Full
Apr 22
Last Quarter
Apr 29
New

Hourly Weather History & Observations

Time (NZDT) Temp. Dew Point Humidity Pressure Visibility Wind Dir Wind Speed Gust Speed Precip Events Conditions
12:00 AM 57.2 °F 55.4 °F 94% 30.18 in 6.2 mi West 3.5 mph - N/A   Overcast
12:30 AM 57.2 °F 55.4 °F 94% 30.15 in 6.2 mi WSW 3.5 mph - N/A   Overcast
1:00 AM 57.2 °F 55.4 °F 94% 30.15 in 6.2 mi SW 3.5 mph - N/A   Overcast
1:30 AM 57.2 °F 55.4 °F 94% 30.15 in 6.2 mi WSW 3.5 mph - N/A   Overcast
2:00 AM 57.2 °F 55.4 °F 94% 30.15 in 6.2 mi WSW 4.6 mph - N/A   Overcast
2:30 AM 57.2 °F 55.4 °F 94% 30.15 in 6.2 mi SW 5.8 mph - N/A   Overcast
3:00 AM 57.2 °F 55.4 °F 94% 30.15 in 6.2 mi SW 4.6 mph - N/A   Overcast
3:30 AM 57.2 °F 55.4 °F 94% 30.15 in 6.2 mi South 4.6 mph - N/A   Overcast
4:00 AM 57.2 °F 55.4 °F 94% 30.12 in 6.2 mi SSW 4.6 mph - N/A   Overcast
4:30 AM 57.2 °F 55.4 °F 94% 30.12 in 6.2 mi SSW 4.6 mph - N/A   Overcast
5:00 AM 55.4 °F 55.4 °F 100% 30.12 in 4.3 mi SW 4.6 mph - N/A   Overcast
5:30 AM 55.4 °F 55.4 °F 100% 30.12 in 3.7 mi SW 3.5 mph - N/A   Overcast
6:00 AM 55.4 °F 55.4 °F 100% 30.12 in - SW 5.8 mph - N/A   Mostly Cloudy
6:30 AM 55.4 °F 55.4 °F 100% 30.12 in - SW 5.8 mph - N/A   Mostly Cloudy
7:00 AM 55.4 °F 55.4 °F 100% 30.12 in - SW 5.8 mph - N/A   Overcast
8:00 AM 57.2 °F 55.4 °F 94% 30.12 in - SW 5.8 mph - N/A   Mostly Cloudy
8:30 AM 57.2 °F 55.4 °F 94% 30.12 in - SW 5.8 mph - N/A   Overcast
9:00 AM 57.2 °F 55.4 °F 94% 30.12 in - SW 6.9 mph - N/A   Overcast
9:30 AM 57.2 °F 55.4 °F 94% 30.15 in - SSW 4.6 mph - N/A   Overcast
10:00 AM 57.2 °F 57.2 °F 100% 30.15 in 3.1 mi SW 5.8 mph - N/A   Overcast
10:30 AM 57.2 °F 57.2 °F 100% 30.15 in 3.7 mi SW 5.8 mph - N/A   Overcast
11:00 AM 59.0 °F 57.2 °F 94% 30.15 in 3.7 mi SW 5.8 mph - N/A   Overcast
11:30 AM 59.0 °F 57.2 °F 94% 30.15 in 5.6 mi SW 6.9 mph - N/A   Overcast
12:00 PM 59.0 °F 57.2 °F 94% 30.15 in 6.2 mi SSW 8.1 mph - N/A   Overcast
12:30 PM 59.0 °F 57.2 °F 94% 30.15 in 6.2 mi SSW 10.4 mph - N/A   Overcast
1:00 PM 59.0 °F 57.2 °F 94% 30.15 in 6.2 mi SSW 10.4 mph - N/A   Overcast
1:30 PM 59.0 °F 57.2 °F 94% 30.15 in 6.2 mi SSW 10.4 mph - N/A   Overcast
2:00 PM 57.2 °F 55.4 °F 94% 30.15 in 5.0 mi SSW 8.1 mph - N/A   Overcast
2:30 PM 57.2 °F 57.2 °F 100% 30.12 in - SSW 9.2 mph - N/A   Drizzle
3:00 PM 57.2 °F 57.2 °F 100% 30.12 in - SSW 10.4 mph - N/A   Drizzle
3:30 PM 57.2 °F 55.4 °F 94% 30.12 in 6.2 mi SSW 8.1 mph - N/A   Overcast
4:00 PM 59.0 °F 55.4 °F 88% 30.12 in 6.2 mi SSW 6.9 mph - N/A Rain Light Rain Showers
4:30 PM 59.0 °F 55.4 °F 88% 30.12 in 6.2 mi SSW 6.9 mph - N/A Rain Light Rain
5:00 PM 59.0 °F 55.4 °F 88% 30.12 in 6.2 mi SSW 8.1 mph - N/A   Mostly Cloudy
5:30 PM 59.0 °F 55.4 °F 88% 30.12 in 6.2 mi South 5.8 mph - N/A   Drizzle
6:00 PM 57.2 °F 55.4 °F 94% 30.12 in 6.2 mi South 4.6 mph - N/A Rain Light Rain Showers
6:30 PM 57.2 °F 55.4 °F 94% 30.12 in 6.2 mi SSW 4.6 mph - N/A Rain Light Rain
7:00 PM 57.2 °F 55.4 °F 94% 30.12 in 6.2 mi SSW 5.8 mph - N/A Rain Light Rain
7:30 PM 57.2 °F 55.4 °F 94% 30.12 in 6.2 mi SSW 5.8 mph - N/A Rain Light Rain
8:00 PM 55.4 °F 55.4 °F 100% 30.15 in 6.2 mi SSW 3.5 mph - N/A   Drizzle
8:30 PM 55.4 °F 55.4 °F 100% 30.15 in 6.2 mi SSW 3.5 mph - N/A Rain Light Rain Showers
9:00 PM 55.4 °F 55.4 °F 100% 30.15 in 5.0 mi SSW 4.6 mph - N/A Rain Light Rain
9:30 PM 55.4 °F 55.4 °F 100% 30.15 in 6.2 mi SSW 3.5 mph - N/A Rain Light Rain
10:00 PM 55.4 °F 55.4 °F 100% 30.18 in 6.2 mi SW 3.5 mph - N/A Rain Light Rain Showers
10:30 PM 55.4 °F 55.4 °F 100% 30.18 in 6.2 mi SW 4.6 mph - N/A   Overcast
11:00 PM 55.4 °F 55.4 °F 100% 30.18 in 6.2 mi SW 4.6 mph - N/A   Overcast
11:30 PM 55.4 °F 55.4 °F 100% 30.15 in 6.2 mi WSW 2.3 mph - N/A   Drizzle